[[{"header":{"parameterUnit":"m.s-1","parameterCategory":2,"la1":30.2991,"la2":30.254,"lo1":-89.0895,"lo2":-89.0444,"dy":0.0017,"dx":0.0017,"nx":28,"ny":28,"refTime":"2025-09-16T21:00:00:Z","depth":"0","parameterNumber":2,"parameterNumberName":"U-component_of_CURRENTS"},"data":[0,0,0,0,0,0,0,0,0,0,0,0,0,0,0,0,0,0,0,0,0,0,0,0,0,0,0,0,0,0,0,0,0,0,0,0,0,0,0,0,0,0,0,0,0,0,0,0,0,0,0,0,0,0,0,0,0,0,0.3094,0.3094,0,0.3087,0.3087,0.3087,0.3068,0.3068,0.3068,0.3068,0.2991,0.2989,0.2987,0,0,0,0,0,0,0,0,0,0,0,0,0,0.3043,0.3044,0.3094,0.3094,0.3094,0.3087,0.3087,0.3086,0.3068,0.3068,0.3068,0.3068,0.2992,0.299,0.2987,0,0,0,0,0,0,0,0,0,0,0,0,0,0.305,0.3044,0.3094,0.3087,0.3087,0.3088,0.3087,0.3086,0.3068,0.3068,0.3068,0.3068,0.2993,0.299,0.2987,0.2969,0,0,0.2978,0.2976,0,0,0,0,0,0,0,0,0.3049,0.3051,0.3088,0.3088,0.3088,0.3082,0.3041,0.3045,0.3068,0.3071,0.3068,0.3068,0.3018,0.3013,0.3007,0.2965,0.2962,0.2977,0.2975,0.2974,0.2973,0,0,0,0,0,0,0,0.3049,0.3051,0.3087,0.3088,0.3088,0.3069,0.307,0.3042,0.304,0.307,0.307,0.3076,0.3017,0.301,0.3005,0.2961,0.2977,0.2975,0.2973,0.2972,0.2948,0.2949,0,0,0,0,0,0,0.3061,0.3051,0.3087,0.3087,0.3073,0.3071,0.3071,0.308,0.3042,0.3038,0.3076,0.3075,0.3015,0.3008,0.3002,0.3026,0.2974,0.2971,0.297,0.2947,0.2949,0.295,0,0,0,0,0,0,0.306,0.3065,0.3088,0.3072,0.3074,0.3072,0.3082,0.308,0.3083,0.3048,0.3041,0.3083,0.3015,0.3006,0.3001,0.3021,0.297,0.2967,0.2946,0.2948,0.2949,0.3044,0,0,0,0,0,0,0.3059,0.3064,0.307,0.3073,0.3076,0.3107,0.3083,0.308,0.3089,0.3088,0.3051,0.3043,0.3014,0.3006,0.2998,0.3016,0.2965,0.2944,0.2947,0.2949,0.3039,0.3049,0.3057,0,0,0,0,0,0.3057,0.3071,0.307,0.3075,0.3086,0.3109,0.3109,0.3103,0.3089,0.3102,0.3081,0.3045,0.3014,0.3005,0.2995,0.3013,0.2943,0.2946,0.2948,0.3036,0.3047,0.3057,0,0,0,0,0,0,0.305,0.3071,0.307,0.3089,0.3107,0.3108,0.3115,0.3111,0.3104,0.3099,0.3059,0.3051,0.3061,0.3021,0.3012,0.3014,0.2973,0.2974,0.3042,0.3053,0.3061,0.3106,0.2962,0,0,0,0,0,0.3053,0.307,0.3088,0.3104,0.3114,0.3115,0.312,0.3124,0.312,0.3117,0.3098,0.3072,0.3062,0.3046,0.3034,0.3024,0.3085,0.303,0.3039,0.3046,0.3077,0.3247,0.3277,0.2959,0.2959,0.2959,0,0,0.3053,0.3068,0.3076,0.3104,0.3111,0.3131,0.3117,0.3139,0.3153,0.3108,0.3118,0.3109,0.3071,0.3078,0.3075,0.3045,0.3158,0.305,0.3057,0.3084,0.3254,0.3286,0.3314,0.2961,0.296,0.296,0,0,0.3067,0.3079,0.3098,0.3116,0.3142,0.3148,0.3161,0.3176,0.3181,0.3193,0.3174,0.3195,0.3149,0.3155,0.3141,0.3189,0.3213,0.3162,0.3227,0.3392,0.3421,0.3448,0.3531,0.3565,0.3151,0.3151,0.3152,0,0.3067,0.3086,0.3108,0.3131,0.3141,0.316,0.3178,0.3194,0.3208,0.323,0.3208,0.323,0.3197,0.3232,0.3246,0.3213,0.3291,0.3188,0.3411,0.3438,0.3464,0.3544,0.358,0.3156,0.3156,0.3155,0.3155,0,0.3089,0.3106,0.312,0.3153,0.3175,0.3194,0.3224,0.3255,0.3261,0.3287,0.3342,0.3331,0.3352,0.3336,0.3297,0.3437,0.3426,0.3421,0.3396,0.3503,0.3577,0.3613,0.3163,0.3162,0.316,0.3159,0,0,0.3072,0.3124,0.3127,0.3138,0.3181,0.3201,0.3247,0.3298,0.3346,0.3381,0.3458,0.3457,0.3489,0.3479,0.3455,0.3574,0.3795,0.3573,0.358,0.3676,0.4133,0.3998,0.4023,0.3854,0.3862,0.3868,0.41,0,0.3072,0.3112,0.3139,0.317,0.3184,0.3225,0.3268,0.3328,0.338,0.3471,0.3517,0.3578,0.3528,0.3553,0.3675,0.3775,0.39,0.373,0.3997,0.4003,0.3891,0.4064,0.3902,0.4087,0.4135,0.4141,0.4145,0,0.3067,0.3093,0.312,0.3172,0.3184,0.3214,0.3296,0.334,0.3479,0.3533,0.3638,0.369,0.3835,0.3797,0.4068,0.3971,0.4071,0.4148,0.4159,0.4034,0.3938,0.3993,0.4151,0.4003,0.4201,0.4196,0.4192,0,0.3021,0.3072,0.3088,0.3103,0.3175,0.3202,0.3247,0.3361,0.3433,0.3599,0.3698,0.3859,0.3962,0.4151,0.4263,0.4218,0.4575,0.4528,0.4497,0.4484,0.4397,0.4364,0.4466,0.4777,0.4777,0.4776,0.4775,0,0.2995,0.3009,0.3069,0.3077,0.3124,0.3175,0.3256,0.3335,0.3486,0.3604,0.3733,0.3863,0.4079,0.4268,0.4369,0.4534,0.467,0.4564,0.4575,0.4413,0.438,0.4282,0.421,0.4784,0.4783,0.4781,0.4779,0,0.2956,0.2984,0.3011,0.3077,0.3103,0.3138,0.3263,0.3347,0.3476,0.3647,0.3717,0.3951,0.4175,0.4339,0.4634,0.4651,0.469,0.4838,0.4578,0.4553,0.4333,0.427,0.4278,0.416,0.4872,0.4871,0.487,0,0.2955,0.2956,0.3012,0.3054,0.3088,0.3153,0.3223,0.3337,0.3432,0.3682,0.3776,0.4028,0.4174,0.4507,0.4612,0.478,0.4647,0.4706,0.4585,0.4345,0.4288,0.4111,0.3998,0.4502,0.4498,0.4495,0.4492,0,0.2972,0.2976,0.302,0.3087,0.3147,0.3194,0.3287,0.3348,0.3495,0.3633,0.3819,0.3952,0.422,0.4322,0.4502,0.4576,0.4448,0.4637,0.4522,0.4128,0.3824,0.3702,0.4259,0.4462,0.4465,0.4468,0.4469,0.447,0.3022,0.3047,0.3106,0.3152,0.3208,0.3227,0.3231,0.3334,0.3436,0.3584,0.3762,0.3895,0.4076,0.4294,0.4329,0.4236,0.4233,0.4144,0.4128,0.3999,0.3763,0.4193,0.4308,0.431,0.4312,0.4313,0.4315,0,0.3101,0.3125,0.3183,0.3217,0.323,0.3246,0.328,0.325,0.3296,0.3479,0.3604,0.373,0.3823,0.3916,0.3908,0.3771,0.3632,0.3664,0.342,0.3367,0.3898,0.3753,0.359,0.359,0.359,0.359,0.359,0.3591,0.3169,0.3222,0.3206,0.3221,0.3223,0.3161,0.3127,0.3092,0.315,0.3182,0.3229,0.3348,0.3491,0.3605,0.3472,0.3389,0.3124,0.299,0.2983,0.3374,0.3416,0.3457,0.3304,0.305,0.305,0.2318,0.2313,0.2309]},{"header":{"parameterUnit":"m.s-1","parameterCategory":2,"la1":30.2991,"la2":30.254,"lo1":-89.0895,"lo2":-89.0444,"dy":0.0017,"dx":0.0017,"nx":28,"ny":28,"refTime":"2025-09-16T21:00:00:Z","depth":"0","parameterNumber":3,"parameterNumberName":"V-component_of_CURRENTS"},"data":[0,0,0,0,0,0,0,0,0,0,0,0,0,0,0,0,0,0,0,0,0,0,0,0,0,0,0,0,0,0,0,0,0,0,0,0,0,0,0,0,0,0,0,0,0,0,0,0,0,0,0,0,0,0,0,0,0,0,0.0251,0.025,0,0.0177,0.0177,0.0176,0.014,0.014,0.0141,0.0141,0.0079,0.0077,0.0075,0,0,0,0,0,0,0,0,0,0,0,0,0,0.028,0.028,0.0251,0.025,0.0249,0.0178,0.0177,0.0175,0.014,0.014,0.0141,0.0141,0.0079,0.0077,0.0075,0,0,0,0,0,0,0,0,0,0,0,0,0,0.0242,0.028,0.0251,0.0224,0.0221,0.0178,0.0176,0.0175,0.014,0.014,0.0141,0.0141,0.008,0.0077,0.0075,0.0054,0,0,0.0066,0.0065,0,0,0,0,0,0,0,0,0.0244,0.0241,0.0229,0.0226,0.0222,0.0169,0.0164,0.0136,0.014,0.0169,0.0141,0.0141,0.0111,0.0105,0.0089,0.0051,0.0048,0.0066,0.0065,0.0063,0.0063,0,0,0,0,0,0,0,0.0247,0.0243,0.022,0.0228,0.0224,0.0188,0.0183,0.0158,0.0139,0.0167,0.0164,0.0158,0.0109,0.0092,0.0088,0.0047,0.0066,0.0064,0.0062,0.0061,-0.0009,-0.001,0,0,0,0,0,0,0.0263,0.0246,0.0223,0.0218,0.0235,0.0188,0.0183,0.0185,0.0139,0.0132,0.0158,0.0157,0.0096,0.0091,0.0085,0.0073,0.0063,0.0061,0.0059,-0.0009,-0.001,-0.001,0,0,0,0,0,0,0.0264,0.0262,0.0226,0.0231,0.0224,0.0188,0.019,0.0184,0.0167,0.0132,0.0126,0.0149,0.0096,0.0089,0.0064,0.007,0.006,0.0057,-0.0009,-0.0009,-0.001,0.0039,0,0,0,0,0,0,0.0265,0.0263,0.0269,0.0232,0.0224,0.0208,0.019,0.0182,0.0163,0.0161,0.0122,0.0116,0.0096,0.0069,0.0062,0.0066,0.0055,-0.0009,-0.0009,-0.001,0.0038,0.0041,0.0043,0,0,0,0,0,0.0266,0.0279,0.027,0.0267,0.0235,0.0209,0.0201,0.0174,0.0163,0.0159,0.0131,0.0118,0.0061,0.0066,0.0058,0.0062,-0.0008,-0.0009,-0.0009,0.0037,0.004,0.0043,0,0,0,0,0,0,0.0299,0.0276,0.0265,0.0271,0.0245,0.0203,0.0198,0.0175,0.0148,0.0147,0.0113,0.0105,0.0084,0.0063,0.007,0.0038,0.0024,0.0022,0.0062,0.0065,0.0067,0.0127,0.0053,0,0,0,0,0,0.0309,0.0311,0.0279,0.0284,0.0273,0.0234,0.0219,0.02,0.0171,0.0159,0.0133,0.0103,0.0074,0.0063,0.0036,0.0019,0.0059,0.0015,0.0018,0.002,0.0061,0.0154,0.0171,-0.0012,-0.0012,-0.0012,0,0,0.0323,0.0311,0.0312,0.0291,0.0268,0.0257,0.0225,0.0209,0.0202,0.0157,0.0144,0.0109,0.007,0.0052,0.0041,0.0037,0.008,0.0019,0.0022,0.0063,0.0156,0.0174,0.0191,-0.0012,-0.0012,-0.0012,0,0,0.0348,0.0341,0.0347,0.0328,0.0299,0.0277,0.0274,0.0236,0.0221,0.0201,0.0165,0.0147,0.0097,0.0082,0.0063,0.0064,0.0088,0.0037,0.0103,0.0191,0.0209,0.0225,0.0257,0.0276,0.0042,0.0043,0.0043,0,0.0367,0.037,0.0343,0.0339,0.0332,0.029,0.0291,0.0268,0.0229,0.0239,0.0208,0.0176,0.0122,0.0129,0.0113,0.0075,0.0118,0.0095,0.0201,0.0218,0.0234,0.0263,0.0284,0.0045,0.0045,0.0044,0.0044,0,0.0389,0.039,0.0392,0.0378,0.0366,0.0361,0.0329,0.0325,0.0305,0.0296,0.0302,0.0246,0.0249,0.02,0.0148,0.0215,0.0204,0.0195,0.0208,0.0257,0.0282,0.0302,0.0048,0.0047,0.0047,0.0046,0,0,0.043,0.0413,0.0414,0.0424,0.0388,0.0391,0.0385,0.039,0.0442,0.039,0.0468,0.0368,0.0375,0.0355,0.0298,0.034,0.0434,0.0316,0.0319,0.0371,0.0613,0.051,0.0522,0.0464,0.0469,0.0472,0.0571,0,0.0455,0.0475,0.045,0.0473,0.0481,0.0453,0.0474,0.0477,0.0489,0.056,0.0517,0.0564,0.0423,0.0455,0.0467,0.0476,0.0499,0.0407,0.0538,0.0542,0.0467,0.0547,0.0474,0.055,0.0591,0.0595,0.0597,0,0.0476,0.0493,0.0523,0.0551,0.0556,0.0572,0.0638,0.0653,0.0719,0.0746,0.0781,0.0779,0.0812,0.071,0.0751,0.0711,0.0665,0.0645,0.0649,0.0567,0.048,0.0514,0.0586,0.0371,0.0629,0.0626,0.0624,0,0.0532,0.0543,0.0581,0.0583,0.0608,0.064,0.0666,0.0723,0.0805,0.0907,0.1024,0.1023,0.111,0.1063,0.0962,0.0903,0.1028,0.0948,0.0797,0.0787,0.0759,0.0738,0.0669,0.0993,0.0993,0.0992,0.0992,0,0.0568,0.0601,0.0622,0.0649,0.0745,0.0725,0.0859,0.0893,0.1022,0.1185,0.1152,0.1308,0.1222,0.1254,0.11,0.1023,0.114,0.0846,0.0833,0.0761,0.0741,0.0577,0.0467,0.0996,0.0995,0.0994,0.0994,0,0.0632,0.0628,0.0694,0.0744,0.0776,0.0856,0.0997,0.1117,0.1211,0.1443,0.1507,0.1606,0.1642,0.1492,0.1454,0.1244,0.1018,0.1067,0.0948,0.0916,0.0529,0.0425,0.0398,0.0312,0.0944,0.0942,0.0941,0,0.0671,0.0709,0.0798,0.087,0.0904,0.1021,0.1129,0.1216,0.1366,0.1629,0.1776,0.1884,0.1963,0.1826,0.1489,0.1223,0.1017,0.0958,0.0805,0.0531,0.0408,0.0333,0.0257,0.0772,0.077,0.0768,0.0766,0,0.0774,0.0806,0.0879,0.1022,0.1134,0.127,0.1426,0.1569,0.172,0.1922,0.2178,0.2267,0.2113,0.1842,0.1444,0.1218,0.0782,0.0903,0.07,0.0343,0.019,0.0091,0.0636,0.0747,0.0749,0.0751,0.0752,0.0752,0.0881,0.0961,0.106,0.1194,0.1327,0.1499,0.1632,0.182,0.2064,0.2351,0.2424,0.2561,0.2115,0.1568,0.126,0.0584,0.064,0.036,0.028,0.0247,0.0092,0.0552,0.0586,0.0587,0.0588,0.0588,0.0589,0,0.1004,0.1086,0.1226,0.138,0.1532,0.1573,0.1821,0.1967,0.2242,0.2482,0.2666,0.2458,0.1915,0.134,0.0444,0.0028,-0.0109,-0.0182,-0.0296,-0.0325,0.0162,0.0075,-0.0096,-0.0096,-0.0096,-0.0096,-0.0096,-0.0095,0.1081,0.1216,0.1268,0.1512,0.163,0.1834,0.1967,0.2195,0.2384,0.2607,0.2639,0.2639,0.2107,0.0664,-0.0301,-0.0497,-0.076,-0.0826,-0.0903,-0.061,-0.0566,-0.0524,-0.0633,-0.0949,-0.0951,-0.1374,-0.1378,-0.1382]}],[{"header":{"parameterUnit":"m.s-1","parameterCategory":2,"la1":30.2991,"la2":30.254,"lo1":-89.0895,"lo2":-89.0444,"dy":0.0017,"dx":0.0017,"nx":28,"ny":28,"refTime":"2025-09-16T21:00:00:Z","depth":"2","parameterNumber":2,"parameterNumberName":"U-component_of_CURRENTS"},"data":[0,0,0,0,0,0,0,0,0,0,0,0,0,0,0,0,0,0,0,0,0,0,0,0,0,0,0,0,0,0,0,0,0,0,0,0,0,0,0,0,0,0,0,0,0,0,0,0,0,0,0,0,0,0,0,0,0,0,0.2381,0.2382,0,0.2453,0.2454,0.2455,0.249,0.249,0.249,0.249,0.263,0.2633,0.2637,0,0,0,0,0,0,0,0,0,0,0,0,0,0.2313,0.2314,0.2381,0.2382,0.2383,0.2453,0.2454,0.2455,0.249,0.249,0.249,0.249,0.2628,0.2633,0.2637,0,0,0,0,0,0,0,0,0,0,0,0,0,0.2358,0.2314,0.2381,0.241,0.2413,0.2453,0.2454,0.2455,0.249,0.249,0.249,0.249,0.2627,0.2632,0.2638,0.2668,0,0,0.2654,0.2657,0,0,0,0,0,0,0,0,0.2356,0.2361,0.2405,0.2408,0.2412,0.2464,0.2481,0.253,0.249,0.2459,0.249,0.249,0.2581,0.259,0.2601,0.2675,0.2681,0.2655,0.2658,0.266,0.2662,0,0,0,0,0,0,0,0.2353,0.2358,0.2408,0.2406,0.241,0.2433,0.2439,0.2491,0.2519,0.2462,0.2465,0.2475,0.2583,0.2595,0.2605,0.2683,0.2655,0.266,0.2663,0.2665,0.2955,0.2959,0,0,0,0,0,0,0.2344,0.2355,0.2406,0.2411,0.2385,0.2434,0.2441,0.2446,0.2517,0.2528,0.2475,0.2476,0.2586,0.2598,0.261,0.2742,0.266,0.2666,0.2669,0.295,0.2956,0.2961,0,0,0,0,0,0,0.2342,0.2348,0.2403,0.2386,0.2395,0.2435,0.244,0.2447,0.2472,0.2526,0.2538,0.2494,0.2587,0.2602,0.2667,0.2744,0.2668,0.2673,0.2945,0.2952,0.2958,0.2949,0,0,0,0,0,0,0.234,0.2346,0.2366,0.2385,0.2395,0.2432,0.2441,0.2449,0.2478,0.2481,0.2547,0.2559,0.2588,0.2659,0.2673,0.2751,0.2677,0.294,0.2948,0.2956,0.2943,0.2954,0.2963,0,0,0,0,0,0.2337,0.2364,0.2367,0.2374,0.2415,0.2432,0.244,0.2468,0.2479,0.2491,0.2538,0.2557,0.2724,0.2664,0.268,0.2762,0.2936,0.2946,0.2956,0.2939,0.2952,0.2963,0,0,0,0,0,0,0.2339,0.237,0.2374,0.2407,0.2418,0.2439,0.2484,0.2475,0.2519,0.2542,0.2575,0.2591,0.2682,0.2732,0.2665,0.2882,0.2851,0.2864,0.2833,0.2846,0.2856,0.2855,0.2682,0,0,0,0,0,0.2348,0.2367,0.2393,0.2407,0.2446,0.2462,0.2482,0.2484,0.2517,0.2537,0.2587,0.2668,0.2736,0.2791,0.2852,0.2953,0.2976,0.3036,0.3046,0.3053,0.3072,0.3187,0.3208,0.2993,0.2993,0.2993,0,0,0.2354,0.2365,0.2382,0.2408,0.2448,0.2485,0.2477,0.2513,0.2538,0.2549,0.2638,0.2683,0.2765,0.2871,0.2925,0.2923,0.3115,0.3066,0.3071,0.3086,0.32,0.322,0.3238,0.3,0.2999,0.2998,0,0,0.2359,0.24,0.2429,0.2467,0.251,0.2511,0.2521,0.2563,0.26,0.2659,0.269,0.2763,0.2888,0.295,0.2999,0.3108,0.3143,0.3174,0.3244,0.3355,0.3372,0.3388,0.3369,0.3383,0.3205,0.3205,0.3205,0,0.2355,0.2402,0.2435,0.2488,0.2532,0.2526,0.2573,0.2605,0.2646,0.2708,0.2701,0.2889,0.2924,0.3059,0.3103,0.3126,0.317,0.3171,0.3362,0.3378,0.3394,0.3372,0.3388,0.3205,0.3205,0.3205,0.3205,0,0.2392,0.2454,0.2493,0.2547,0.2582,0.2628,0.2676,0.2717,0.2753,0.28,0.2938,0.2982,0.3107,0.3141,0.315,0.3314,0.3293,0.3328,0.3309,0.3414,0.3385,0.3401,0.3206,0.3206,0.3206,0.3206,0,0,0.2335,0.2481,0.2501,0.2573,0.2633,0.2667,0.2729,0.2806,0.2877,0.2954,0.3081,0.3177,0.3228,0.3288,0.3322,0.3414,0.3506,0.344,0.3445,0.3379,0.3691,0.3529,0.353,0.3603,0.3607,0.3611,0.3594,0,0.2356,0.2451,0.2517,0.2627,0.2708,0.2763,0.2821,0.2892,0.2957,0.3082,0.3182,0.3296,0.3284,0.3341,0.3443,0.3492,0.3566,0.3502,0.3638,0.3639,0.3451,0.3551,0.3301,0.3258,0.361,0.3612,0.3614,0,0.2379,0.2452,0.2552,0.2713,0.2762,0.2806,0.2922,0.2997,0.3151,0.3207,0.3344,0.3417,0.3543,0.3529,0.367,0.3648,0.3688,0.3708,0.3709,0.3583,0.3512,0.3234,0.3274,0.3642,0.3639,0.3637,0.3636,0,0.2338,0.2491,0.2563,0.2626,0.2779,0.285,0.2933,0.3053,0.3135,0.3311,0.3373,0.3535,0.3623,0.3722,0.3743,0.3748,0.3881,0.3885,0.376,0.3742,0.3566,0.3526,0.4023,0.4023,0.4023,0.4023,0.4023,0,0.2335,0.2436,0.2563,0.2648,0.2759,0.288,0.3002,0.3096,0.3229,0.3336,0.3472,0.3533,0.3701,0.3784,0.38,0.3797,0.3926,0.3777,0.3763,0.3546,0.3508,0.3892,0.3877,0.4022,0.4023,0.4023,0.4023,0,0.2294,0.238,0.2512,0.2688,0.276,0.2851,0.3035,0.3107,0.3232,0.3366,0.3422,0.3579,0.366,0.3747,0.387,0.3837,0.3849,0.3826,0.3484,0.3432,0.3609,0.3595,0.368,0.3675,0.3671,0.3667,0.3664,0,0.2309,0.2349,0.2531,0.26,0.2697,0.2844,0.2932,0.309,0.3148,0.3346,0.3399,0.3546,0.3576,0.365,0.3637,0.3612,0.3751,0.3364,0.3334,0.3613,0.3592,0.3584,0.3576,0.3059,0.3051,0.3045,0.304,0,0.2336,0.2356,0.2439,0.2548,0.2659,0.2768,0.2918,0.293,0.3102,0.3157,0.3224,0.3274,0.3397,0.3273,0.3285,0.3243,0.3339,0.3231,0.3688,0.3179,0.3027,0.3005,0.3018,0.2983,0.2989,0.2993,0.2996,0.2998,0.2363,0.2343,0.24,0.2477,0.2594,0.2646,0.2658,0.275,0.2779,0.2826,0.2971,0.2967,0.3038,0.2909,0.2816,0.2778,0.3002,0.2897,0.2918,0.2946,0.2873,0.2722,0.2599,0.2602,0.2605,0.2608,0.261,0,0.2316,0.2302,0.2351,0.2401,0.2418,0.2548,0.2605,0.2528,0.2466,0.2581,0.2595,0.2396,0.2338,0.2428,0.2282,0.2262,0.2267,0.2183,0.219,0.2247,0.2298,0.2194,0.174,0.1737,0.1734,0.1731,0,0,0.2325,0.2274,0.2215,0.2188,0.2249,0.2226,0.2209,0.2119,0.2137,0.2035,0.2046,0.223,0.2352,0.2013,0.197,0.1839,0.203,0.1769,0.2473,0.254,0.2587,0.2718,0.2623,0,0,0,0,0]},{"header":{"parameterUnit":"m.s-1","parameterCategory":2,"la1":30.2991,"la2":30.254,"lo1":-89.0895,"lo2":-89.0444,"dy":0.0017,"dx":0.0017,"nx":28,"ny":28,"refTime":"2025-09-16T21:00:00:Z","depth":"2","parameterNumber":3,"parameterNumberName":"V-component_of_CURRENTS"},"data":[0,0,0,0,0,0,0,0,0,0,0,0,0,0,0,0,0,0,0,0,0,0,0,0,0,0,0,0,0,0,0,0,0,0,0,0,0,0,0,0,0,0,0,0,0,0,0,0,0,0,0,0,0,0,0,0,0,0,-0.0146,-0.0147,0,-0.0198,-0.0198,-0.0199,-0.0244,-0.0245,-0.0245,-0.0245,-0.0373,-0.0375,-0.0378,0,0,0,0,0,0,0,0,0,0,0,0,0,-0.0117,-0.0117,-0.0146,-0.0147,-0.0147,-0.0198,-0.0198,-0.0199,-0.0244,-0.0245,-0.0245,-0.0246,-0.0372,-0.0375,-0.0379,0,0,0,0,0,0,0,0,0,0,0,0,0,-0.0146,-0.0117,-0.0146,-0.0175,-0.0178,-0.0197,-0.0198,-0.0199,-0.0244,-0.0245,-0.0245,-0.0246,-0.037,-0.0375,-0.0379,-0.0394,0,0,-0.0393,-0.0395,0,0,0,0,0,0,0,0,-0.0144,-0.0147,-0.017,-0.0173,-0.0177,-0.0214,-0.0235,-0.0268,-0.0244,-0.022,-0.0246,-0.0246,-0.0326,-0.0334,-0.0342,-0.04,-0.0405,-0.0393,-0.0396,-0.0398,-0.0399,0,0,0,0,0,0,0,-0.0142,-0.0145,-0.0168,-0.0171,-0.0175,-0.0196,-0.02,-0.0241,-0.0271,-0.0222,-0.0225,-0.0229,-0.0328,-0.0338,-0.0346,-0.0407,-0.0393,-0.0397,-0.04,-0.0402,-0.0541,-0.0542,0,0,0,0,0,0,-0.0132,-0.0143,-0.0166,-0.0169,-0.0161,-0.0196,-0.0201,-0.0202,-0.0269,-0.0279,-0.0229,-0.0231,-0.033,-0.034,-0.0351,-0.0378,-0.0398,-0.0402,-0.0405,-0.054,-0.0541,-0.0542,0,0,0,0,0,0,-0.0131,-0.0133,-0.0164,-0.0157,-0.0162,-0.0195,-0.0197,-0.0203,-0.0216,-0.0273,-0.0284,-0.0235,-0.0331,-0.0344,-0.0381,-0.0383,-0.0404,-0.0408,-0.0539,-0.054,-0.0542,-0.0429,0,0,0,0,0,0,-0.013,-0.0132,-0.0135,-0.0156,-0.0162,-0.0165,-0.0196,-0.0203,-0.0217,-0.0221,-0.0282,-0.0294,-0.0332,-0.0374,-0.0385,-0.0389,-0.0412,-0.0537,-0.0539,-0.0541,-0.0431,-0.0426,-0.0422,0,0,0,0,0,-0.0128,-0.0126,-0.0134,-0.0138,-0.0163,-0.0164,-0.0169,-0.0196,-0.0216,-0.0213,-0.0256,-0.0293,-0.0396,-0.0377,-0.0391,-0.0396,-0.0536,-0.0539,-0.0541,-0.0433,-0.0427,-0.0422,0,0,0,0,0,0,-0.0111,-0.0131,-0.0141,-0.0144,-0.0149,-0.0172,-0.0181,-0.0193,-0.0223,-0.0236,-0.0289,-0.0304,-0.0338,-0.039,-0.0369,-0.0449,-0.0479,-0.0484,-0.0393,-0.0388,-0.0383,-0.0337,-0.0415,0,0,0,0,0,-0.0108,-0.0105,-0.0126,-0.012,-0.0134,-0.0157,-0.0165,-0.0176,-0.0203,-0.0217,-0.0258,-0.0317,-0.0358,-0.0388,-0.0432,-0.0469,-0.0491,-0.0492,-0.0487,-0.0483,-0.0458,-0.0456,-0.0447,-0.055,-0.055,-0.055,0,0,-0.0097,-0.0104,-0.0104,-0.0115,-0.0133,-0.0129,-0.0164,-0.017,-0.0162,-0.0228,-0.0245,-0.0293,-0.0363,-0.0396,-0.042,-0.0441,-0.0477,-0.0485,-0.048,-0.0458,-0.0457,-0.0447,-0.0437,-0.0551,-0.0551,-0.0551,0,0,-0.0063,-0.0088,-0.0078,-0.0084,-0.01,-0.011,-0.0108,-0.0134,-0.0151,-0.0167,-0.0214,-0.0247,-0.0329,-0.0358,-0.039,-0.0391,-0.0443,-0.0438,-0.0381,-0.0379,-0.0368,-0.036,-0.0408,-0.0404,-0.0445,-0.0444,-0.0444,0,-0.0046,-0.0037,-0.0071,-0.0063,-0.0062,-0.0097,-0.0079,-0.0097,-0.0123,-0.0127,-0.0165,-0.0244,-0.0301,-0.032,-0.0329,-0.0373,-0.0402,-0.0385,-0.0365,-0.0357,-0.035,-0.0401,-0.0398,-0.0439,-0.044,-0.044,-0.0441,0,-0.0005,-0.0002,0.0,0.0004,0.0002,0.0011,-0.0016,-0.0018,-0.0048,-0.0062,-0.009,-0.0157,-0.0196,-0.024,-0.0286,-0.0278,-0.0327,-0.0343,-0.036,-0.0331,-0.039,-0.0388,-0.0432,-0.0434,-0.0435,-0.0437,0,0,0.0053,0.0035,0.0038,0.0049,0.0037,0.0047,0.0054,0.006,0.0077,0.0027,0.0049,-0.0035,-0.0066,-0.0104,-0.0169,-0.0185,-0.0178,-0.0244,-0.0247,-0.0259,-0.021,-0.0245,-0.0248,-0.0184,-0.0183,-0.0181,-0.0282,0,0.0101,0.0141,0.0113,0.0155,0.017,0.0138,0.016,0.016,0.0135,0.0145,0.008,0.0065,-0.0019,-0.0036,-0.0058,-0.0151,-0.0165,-0.0151,-0.0266,-0.027,-0.0274,-0.0243,-0.0204,-0.0289,-0.0282,-0.0281,-0.0281,0,0.0148,0.0178,0.0225,0.0242,0.0242,0.0263,0.0294,0.0305,0.0302,0.0278,0.0257,0.0205,0.016,0.0101,-0.0014,-0.0006,-0.0084,-0.0157,-0.0163,-0.0222,-0.0299,-0.0316,-0.0288,-0.028,-0.028,-0.028,-0.028,0,0.0221,0.0247,0.0296,0.0301,0.0321,0.0338,0.0352,0.0357,0.0368,0.0373,0.0379,0.032,0.0285,0.0194,0.0024,0.0012,-0.0099,-0.0133,-0.0236,-0.0243,-0.0244,-0.0252,-0.016,-0.016,-0.016,-0.0159,-0.0159,0,0.0279,0.0313,0.0336,0.0362,0.0431,0.0416,0.0471,0.0472,0.0487,0.0517,0.0458,0.0465,0.0314,0.022,0.0076,-0.0092,-0.006,-0.0209,-0.025,-0.0214,-0.0217,-0.0231,-0.0238,-0.0163,-0.0162,-0.0162,-0.0161,0,0.033,0.0344,0.0401,0.0443,0.0459,0.0511,0.0535,0.0566,0.0576,0.0617,0.0624,0.0566,0.0454,0.0281,0.0115,-0.0033,-0.0183,-0.0238,-0.0214,-0.0248,-0.0348,-0.0349,-0.0362,-0.0364,-0.0365,-0.0367,-0.0368,0,0.0346,0.0388,0.0463,0.0494,0.0506,0.0568,0.0602,0.0617,0.0649,0.0675,0.0703,0.0632,0.0605,0.0325,0.008,-0.0163,-0.0184,-0.0306,-0.0299,-0.0319,-0.0359,-0.0358,-0.0356,-0.0287,-0.0287,-0.0287,-0.0288,0,0.0377,0.0411,0.0457,0.0547,0.0587,0.0651,0.0701,0.0758,0.0786,0.0834,0.0893,0.0886,0.0638,0.0424,0.0078,-0.009,-0.0269,-0.0317,-0.0316,-0.0236,-0.0254,-0.0291,-0.0291,-0.0289,-0.0289,-0.0289,-0.0289,-0.0289,0.0378,0.0429,0.0496,0.0586,0.0641,0.074,0.0822,0.089,0.0997,0.1089,0.1047,0.1048,0.0753,0.0358,0.0059,-0.0257,-0.0254,-0.037,-0.0366,-0.0363,-0.033,-0.0348,-0.0399,-0.0399,-0.04,-0.04,-0.0401,0,0.0379,0.0441,0.0518,0.0637,0.0729,0.0755,0.0886,0.0987,0.1156,0.1205,0.1264,0.1018,0.0765,0.0444,-0.0014,-0.0312,-0.0321,-0.04,-0.034,-0.0337,-0.0335,-0.0298,-0.036,-0.0361,-0.0361,-0.0362,0,0,0.0373,0.0452,0.0528,0.07,0.0785,0.0929,0.1031,0.1178,0.127,0.1355,0.1349,0.1274,0.0879,0.0555,0.0161,-0.0087,-0.0143,-0.014,-0.0145,-0.0026,-0.002,-0.0296,-0.0234,0,0,0,0,0]}],[{"header":{"parameterUnit":"m.s-1","parameterCategory":2,"la1":30.2991,"la2":30.254,"lo1":-89.0895,"lo2":-89.0444,"dy":0.0017,"dx":0.0017,"nx":28,"ny":28,"refTime":"2025-09-16T21:00:00:Z","depth":"4","parameterNumber":2,"parameterNumberName":"U-component_of_CURRENTS"},"data":[0,0,0,0,0,0,0,0,0,0,0,0,0,0,0,0,0,0,0,0,0,0,0,0,0,0,0,0,0,0,0,0,0,0,0,0,0,0,0,0,0,0,0,0,0,0,0,0,0,0,0,0,0,0,0,0,0,0,0.1169,0.117,0,0.1178,0.1178,0.1178,0.1208,0.1209,0.121,0.1211,0.1313,0.1314,0.1316,0,0,0,0,0,0,0,0,0,0,0,0,0,0.1086,0.1088,0.1169,0.117,0.117,0.1178,0.1178,0.1178,0.1208,0.1209,0.121,0.1211,0.1312,0.1314,0.1316,0,0,0,0,0,0,0,0,0,0,0,0,0,0.1108,0.1088,0.1169,0.1189,0.1191,0.1178,0.1178,0.1178,0.1207,0.1209,0.121,0.1212,0.1311,0.1314,0.1317,0.1302,0,0,0.1325,0.1326,0,0,0,0,0,0,0,0,0.1107,0.111,0.1186,0.1188,0.119,0.1197,0.1186,0.1225,0.1207,0.1197,0.1211,0.1213,0.1284,0.1289,0.128,0.1307,0.1311,0.1325,0.1326,0.1328,0.1328,0,0,0,0,0,0,0,0.1105,0.111,0.1169,0.1186,0.1189,0.1166,0.1171,0.1192,0.123,0.1198,0.1201,0.1208,0.1286,0.1277,0.1283,0.1312,0.1325,0.1327,0.1329,0.133,0.1431,0.1432,0,0,0,0,0,0,0.1115,0.1109,0.1169,0.117,0.1156,0.1167,0.1173,0.119,0.1228,0.1236,0.1207,0.1209,0.1272,0.128,0.1287,0.1391,0.1327,0.133,0.1331,0.143,0.1432,0.1433,0,0,0,0,0,0,0.1114,0.1121,0.1168,0.1141,0.1147,0.1168,0.1186,0.1189,0.1216,0.1234,0.1244,0.1235,0.1274,0.1283,0.1332,0.1391,0.1331,0.1334,0.1429,0.1431,0.1432,0.1523,0,0,0,0,0,0,0.1111,0.112,0.1141,0.1143,0.1149,0.1187,0.1185,0.1189,0.1218,0.1222,0.1261,0.127,0.1276,0.1328,0.1334,0.1394,0.1336,0.1427,0.143,0.1432,0.1519,0.1528,0.1536,0,0,0,0,0,0.1108,0.112,0.1142,0.115,0.1176,0.1188,0.1189,0.1205,0.1218,0.1234,0.1259,0.1271,0.1346,0.133,0.1338,0.14,0.1426,0.1429,0.1432,0.1515,0.1526,0.1535,0,0,0,0,0,0,0.1094,0.1125,0.1149,0.1172,0.1197,0.1195,0.1203,0.1222,0.1249,0.1265,0.128,0.1291,0.136,0.1354,0.1336,0.1431,0.139,0.1394,0.1451,0.1462,0.147,0.1459,0.1338,0,0,0,0,0,0.1103,0.1126,0.1152,0.1177,0.1186,0.1204,0.1214,0.1235,0.1255,0.1269,0.1294,0.1324,0.1367,0.1395,0.1419,0.1466,0.1451,0.1509,0.1517,0.1525,0.1518,0.1549,0.156,0.1441,0.1441,0.1441,0,0,0.1102,0.1127,0.1139,0.1177,0.1189,0.1212,0.1213,0.1242,0.1272,0.1277,0.1322,0.1358,0.1384,0.1443,0.1473,0.1453,0.1549,0.1528,0.1535,0.1524,0.1553,0.1565,0.1575,0.1443,0.1443,0.1442,0,0,0.1102,0.1137,0.1152,0.117,0.121,0.1232,0.1252,0.1276,0.1298,0.1346,0.1368,0.1426,0.1474,0.1507,0.1531,0.1593,0.1594,0.162,0.166,0.1692,0.1702,0.1711,0.1703,0.171,0.1624,0.1625,0.1625,0,0.1111,0.1135,0.1158,0.1174,0.12,0.1248,0.1276,0.1298,0.1341,0.1376,0.1375,0.1477,0.15,0.1587,0.1612,0.1616,0.1622,0.1627,0.1704,0.1712,0.172,0.171,0.1717,0.1629,0.1629,0.1628,0.1628,0,0.111,0.114,0.1146,0.1197,0.123,0.1261,0.1305,0.1349,0.1396,0.1435,0.1528,0.1553,0.1619,0.1647,0.1652,0.1737,0.1719,0.1714,0.1682,0.1738,0.1723,0.1729,0.1636,0.1634,0.1633,0.1632,0,0,0.1112,0.1144,0.1149,0.1176,0.125,0.1273,0.134,0.142,0.1474,0.1532,0.1599,0.168,0.1717,0.1742,0.177,0.1796,0.1853,0.1786,0.1786,0.1783,0.1908,0.1835,0.1834,0.188,0.1881,0.1883,0.1875,0,0.1119,0.114,0.1172,0.1223,0.1244,0.1315,0.1373,0.1456,0.1527,0.1597,0.1663,0.1744,0.1749,0.1803,0.1832,0.1853,0.1873,0.1853,0.1849,0.1847,0.1781,0.184,0.1888,0.1879,0.188,0.1881,0.1882,0,0.1109,0.1132,0.1169,0.1241,0.126,0.1313,0.1434,0.1491,0.1611,0.1675,0.1774,0.1819,0.1899,0.1876,0.1935,0.1932,0.1926,0.1922,0.1922,0.1822,0.1785,0.1811,0.1892,0.1891,0.189,0.1889,0.1889,0,0.1078,0.1133,0.117,0.1188,0.1278,0.1331,0.1405,0.1527,0.1598,0.1737,0.1801,0.1901,0.1959,0.1976,0.1991,0.1974,0.2025,0.1993,0.1913,0.1906,0.1932,0.1923,0.2018,0.2018,0.2018,0.2018,0.2018,0,0.1056,0.1084,0.1158,0.1168,0.124,0.132,0.1419,0.151,0.1651,0.1739,0.1843,0.1904,0.1992,0.2031,0.2015,0.1991,0.2052,0.1922,0.191,0.1968,0.1963,0.1935,0.1926,0.2017,0.2017,0.2017,0.2018,0,0.1001,0.1043,0.1082,0.1178,0.1218,0.127,0.1421,0.1476,0.1637,0.1746,0.1802,0.1942,0.1999,0.2049,0.2084,0.2021,0.2003,0.1979,0.2036,0.2026,0.1843,0.1838,0.1856,0.1854,0.1851,0.185,0.1848,0,0.0963,0.098,0.1072,0.1095,0.1141,0.1234,0.1287,0.1459,0.1526,0.174,0.1767,0.1902,0.1969,0.1951,0.2014,0.2,0.1981,0.1946,0.1886,0.1845,0.1831,0.183,0.1828,0.1845,0.1845,0.1844,0.1844,0,0.0902,0.0948,0.0979,0.103,0.1076,0.1132,0.1229,0.1287,0.1477,0.1616,0.1723,0.1783,0.1848,0.189,0.1929,0.1903,0.1953,0.1923,0.1926,0.1869,0.1832,0.182,0.1821,0.1836,0.1837,0.1838,0.1839,0,0.0854,0.0864,0.0913,0.0953,0.1001,0.1026,0.1091,0.1181,0.1288,0.1537,0.156,0.17,0.1834,0.1839,0.1854,0.186,0.1808,0.1725,0.1737,0.1745,0.1718,0.1655,0.16,0,0,0,0,0,0.0798,0.0801,0.0832,0.0854,0.0897,0.0938,0.1047,0.112,0.1295,0.1336,0.1473,0.1536,0.162,0.1681,0.1661,0.177,0.1792,0.1736,0.1696,0.1797,0.1805,0.1786,0,0,0,0,0,0,0.0749,0.0772,0.0799,0.0773,0.0781,0.0816,0.0887,0.1001,0.1048,0.124,0.1288,0.1434,0.152,0.1618,0.1628,0.1647,0.1589,0.1831,0.1827,0.1793,0.18,0.1807,0.179,0,0,0,0,0]},{"header":{"parameterUnit":"m.s-1","parameterCategory":2,"la1":30.2991,"la2":30.254,"lo1":-89.0895,"lo2":-89.0444,"dy":0.0017,"dx":0.0017,"nx":28,"ny":28,"refTime":"2025-09-16T21:00:00:Z","depth":"4","parameterNumber":3,"parameterNumberName":"V-component_of_CURRENTS"},"data":[0,0,0,0,0,0,0,0,0,0,0,0,0,0,0,0,0,0,0,0,0,0,0,0,0,0,0,0,0,0,0,0,0,0,0,0,0,0,0,0,0,0,0,0,0,0,0,0,0,0,0,0,0,0,0,0,0,0,0.003,0.0029,0,0.002,0.0021,0.0021,0.0008,0.0008,0.0008,0.0007,-0.0039,-0.004,-0.0041,0,0,0,0,0,0,0,0,0,0,0,0,0,0.004,0.004,0.003,0.0029,0.0029,0.002,0.0021,0.0021,0.0009,0.0008,0.0007,0.0007,-0.0039,-0.004,-0.0041,0,0,0,0,0,0,0,0,0,0,0,0,0,0.0036,0.004,0.003,0.002,0.0019,0.002,0.0021,0.0021,0.0009,0.0008,0.0007,0.0007,-0.0039,-0.004,-0.0041,-0.0036,0,0,-0.0045,-0.0046,0,0,0,0,0,0,0,0,0.0037,0.0036,0.0022,0.0021,0.0019,0.0013,0.0007,-0.0001,0.0009,0.0015,0.0007,0.0006,-0.0027,-0.0029,-0.0025,-0.0038,-0.004,-0.0045,-0.0046,-0.0047,-0.0047,0,0,0,0,0,0,0,0.0037,0.0037,0.0029,0.0021,0.002,0.0017,0.0016,0.0006,-0.0001,0.0015,0.0013,0.0008,-0.0027,-0.0024,-0.0026,-0.0041,-0.0045,-0.0046,-0.0047,-0.0048,-0.0068,-0.0068,0,0,0,0,0,0,0.0033,0.0037,0.0029,0.0028,0.0024,0.0017,0.0016,0.0018,0.0,-0.0004,0.0009,0.0008,-0.0021,-0.0025,-0.0028,-0.0034,-0.0047,-0.0048,-0.0048,-0.0069,-0.0068,-0.0068,0,0,0,0,0,0,0.0034,0.0033,0.0029,0.003,0.0029,0.0018,0.0019,0.0018,0.0015,-0.0004,-0.0008,0.0007,-0.0022,-0.0026,-0.0037,-0.0036,-0.0048,-0.0049,-0.0069,-0.0069,-0.0068,-0.0039,0,0,0,0,0,0,0.0034,0.0034,0.0035,0.003,0.0028,0.0031,0.002,0.0018,0.0012,0.0011,-0.0007,-0.0012,-0.0023,-0.0035,-0.0039,-0.0038,-0.005,-0.0069,-0.0069,-0.0068,-0.004,-0.0038,-0.0036,0,0,0,0,0,0.0035,0.0047,0.0035,0.0034,0.0031,0.0031,0.0031,0.0022,0.0013,0.0017,0.0004,-0.0011,-0.0036,-0.0036,-0.004,-0.0039,-0.0069,-0.0069,-0.0068,-0.0041,-0.0038,-0.0036,0,0,0,0,0,0,0.0053,0.0046,0.0034,0.0042,0.0034,0.0028,0.0034,0.0022,0.0017,0.0013,-0.0007,-0.0012,-0.0023,-0.0033,-0.0034,-0.0044,-0.0056,-0.0056,-0.0034,-0.0031,-0.0029,-0.0021,-0.0051,0,0,0,0,0,0.0056,0.0061,0.0049,0.0053,0.0053,0.0041,0.004,0.0031,0.0023,0.002,0.0009,-0.0006,-0.0022,-0.0029,-0.0041,-0.0044,-0.008,-0.0047,-0.0044,-0.0042,-0.0039,-0.0104,-0.0108,-0.0067,-0.0067,-0.0067,0,0,0.0062,0.0058,0.006,0.0057,0.0053,0.0062,0.004,0.004,0.0046,0.0015,0.0026,0.0001,-0.0022,-0.0026,-0.0032,-0.0036,-0.0072,-0.0042,-0.004,-0.0037,-0.0104,-0.0108,-0.0112,-0.0066,-0.0066,-0.0067,0,0,0.0085,0.0076,0.0091,0.0089,0.0081,0.0075,0.0073,0.0068,0.0066,0.0069,0.0042,0.0017,0.0011,-0.0012,-0.0024,-0.0017,-0.006,-0.002,0.0,-0.0063,-0.0067,-0.0071,-0.0119,-0.0128,-0.0016,-0.0016,-0.0016,0,0.009,0.0108,0.0094,0.011,0.0114,0.0083,0.0101,0.0096,0.0087,0.0084,0.0077,0.0038,0.0018,-0.0009,-0.0003,-0.0013,-0.0052,-0.0008,-0.0061,-0.0066,-0.0071,-0.0119,-0.0129,-0.0014,-0.0014,-0.0015,-0.0015,0,0.0123,0.0139,0.015,0.0159,0.0161,0.017,0.0159,0.0156,0.0146,0.0134,0.011,0.0075,0.0049,0.0036,0.0023,-0.0019,-0.0037,-0.0055,-0.0069,-0.0073,-0.0123,-0.0135,-0.0012,-0.0013,-0.0013,-0.0014,0,0,0.0138,0.0169,0.0173,0.019,0.0189,0.0195,0.0202,0.0198,0.0195,0.0174,0.0162,0.0128,0.0093,0.0076,0.0038,-0.0011,-0.0076,-0.004,-0.0044,-0.0089,-0.0211,-0.0168,-0.0177,-0.0109,-0.0111,-0.0112,-0.0232,0,0.0169,0.0216,0.0219,0.0257,0.0282,0.0261,0.0271,0.0257,0.0238,0.0218,0.0162,0.0139,0.0112,0.009,0.0034,-0.0053,-0.0104,-0.0041,-0.0199,-0.0203,-0.0167,-0.0188,-0.0118,-0.024,-0.0243,-0.0244,-0.0246,0,0.0201,0.0232,0.0282,0.0313,0.0321,0.0335,0.0333,0.0335,0.0292,0.0276,0.0227,0.0179,0.0105,0.0081,-0.0072,-0.0034,-0.0113,-0.018,-0.0187,-0.0164,-0.0181,-0.0237,-0.0266,-0.0265,-0.0263,-0.0262,-0.026,0,0.0223,0.0274,0.0318,0.0329,0.0356,0.0371,0.0377,0.0354,0.0359,0.0304,0.0291,0.0191,0.0143,0.0019,-0.0098,-0.0099,-0.0268,-0.0292,-0.0329,-0.0327,-0.0343,-0.0338,-0.0399,-0.0399,-0.0399,-0.0399,-0.0398,0,0.0254,0.0288,0.0335,0.0358,0.0403,0.0407,0.0435,0.042,0.04,0.0403,0.0321,0.0292,0.0125,0.0018,-0.0103,-0.0239,-0.0276,-0.0329,-0.0357,-0.0326,-0.0318,-0.0352,-0.0344,-0.0403,-0.0402,-0.0401,-0.04,0,0.0266,0.0298,0.0347,0.0395,0.0417,0.0442,0.0488,0.0502,0.0478,0.0472,0.0458,0.0352,0.0212,0.0056,-0.0147,-0.0228,-0.0373,-0.0408,-0.0349,-0.0372,-0.0395,-0.0385,-0.0486,-0.0486,-0.0485,-0.0485,-0.0485,0,0.0272,0.0304,0.0374,0.041,0.0438,0.049,0.0529,0.0538,0.0556,0.0515,0.051,0.0387,0.0304,0.0053,-0.0119,-0.0349,-0.0368,-0.0441,-0.0432,-0.0387,-0.0406,-0.0396,-0.0387,-0.0484,-0.0484,-0.0484,-0.0484,0,0.0283,0.0307,0.0353,0.0437,0.0493,0.0554,0.0611,0.0632,0.0637,0.0617,0.0558,0.0429,0.0277,0.0071,-0.0091,-0.0257,-0.04,-0.0438,-0.044,-0.0433,-0.0386,-0.0403,-0.0394,-0.0483,-0.0483,-0.0483,-0.0483,0,0.029,0.0319,0.0389,0.0462,0.0533,0.0601,0.0629,0.0663,0.068,0.0639,0.0619,0.0451,0.0349,0.012,-0.0038,-0.0188,-0.0236,-0.0284,-0.0295,-0.0299,-0.02,-0.0111,-0.0151,0,0,0,0,0,0.03,0.0347,0.0412,0.0497,0.0568,0.0611,0.0679,0.0701,0.0712,0.0685,0.0657,0.0521,0.0286,0.0173,0.0028,-0.0046,-0.027,-0.0221,-0.0332,-0.0475,-0.0477,-0.0387,0,0,0,0,0,0,0.0314,0.0377,0.0416,0.0519,0.0575,0.0659,0.07,0.0709,0.0696,0.0677,0.0553,0.049,0.0256,0.0366,0.0025,-0.0023,-0.011,-0.0335,-0.0338,-0.0474,-0.0476,-0.0477,-0.0385,0,0,0,0,0]}]]